Location: La Brionne
(46.1728°N, 1.7849°E)
Time: 21:31:55
(UTC+00:00)

Thor Agena Rocket - Pass Details

Date: 16 June 2021
Orbit: 759 x 808 km, 99.0° (Epoch: 02 August)

Event Time Altitude Azimuth Distance (km) Brightness Sun altitude
Rises 23:27:24 0° 19° (NNE) 3,326 7.9 -20.2°
Reaches altitude 10° 23:29:50 10° 24° (NNE) 2,386 6.9 -20.2°
Maximum altitude 23:34:57 50° 100° (E) 1,005 3.9 -20.3°
Enters shadow 23:36:30 38° 148° (SSE) 1,194 4.0 -20.3°
